This is the latest recevied weather packets stored in our database for station/object OE9SAU-10. If no packets are shown the sender has not sent any weather packets the latest 10 day(s).
| Time | Temp. | Humidity | Pressure | Rain* | Wind** | Luminosity | Snow |
|---|---|---|---|---|---|---|---|
| 1777545189 | 17.78° C | 37% | 1025.3 hPa | - | - | - | - |
| 1777544289 | 17.22° C | 40% | 1025.4 hPa | - | - | - | - |
| 1777543389 | 16.67° C | 40% | 1025.5 hPa | - | - | - | - |
| 1777542489 | 16.67° C | 42% | 1025.5 hPa | - | - | - | - |
| 1777541589 | 16.67° C | 44% | 1025.7 hPa | - | - | - | - |
| 1777540689 | 15.56° C | 42% | 1025.7 hPa | - | - | - | - |
| 1777539788 | 15° C | 43% | 1025.7 hPa | - | - | - | - |
| 1777538888 | 15° C | 45% | 1025.8 hPa | - | - | - | - |
| 1777537988 | 14.44° C | 44% | 1025.9 hPa | - | - | - | - |
| 1777537088 | 13.89° C | 47% | 1025.8 hPa | - | - | - | - |
| 1777536188 | 13.89° C | 47% | 1025.8 hPa | - | - | - | - |
| 1777535288 | 13.33° C | 47% | 1025.8 hPa | - | - | - | - |
| 1777534388 | 12.78° C | 50% | 1025.9 hPa | - | - | - | - |
| 1777533488 | 12.22° C | 52% | 1025.9 hPa | - | - | - | - |
| 1777532588 | 11.67° C | 55% | 1025.9 hPa | - | - | - | - |
| 1777531688 | 11.11° C | 54% | 1025.9 hPa | - | - | - | - |
| 1777530788 | 10.56° C | 56% | 1025.9 hPa | - | - | - | - |
| 1777529888 | 10.56° C | 52% | 1025.9 hPa | - | - | - | - |
| 1777528988 | 10° C | 50% | 1025.9 hPa | - | - | - | - |
| 1777528088 | 10° C | 49% | 1025.8 hPa | - | - | - | - |
| 1777527188 | 10° C | 48% | 1025.8 hPa | - | - | - | - |
| 1777526288 | 10° C | 47% | 1025.6 hPa | - | - | - | - |
| 1777525388 | 10° C | 47% | 1025.6 hPa | - | - | - | - |
| 1777524487 | 10.56° C | 47% | 1025.6 hPa | - | - | - | - |
| 1777523587 | 10.56° C | 47% | 1025.5 hPa | - | - | - | - |
* Rain since midnight (hover to see other rain measurements)
** Current wind speed in m/s (hover to see current wind gust speed)